Overview Statistics Trail Chart Weather Telemetry Raw packets
 

This is the latest recevied weather packets stored in our database for station/object SP2CDN-10. If no packets are shown the sender has not sent any weather packets the latest 10 day(s).

<< 9 10 11 12 13 14 15 >>
Time Temp. Humidity Pressure Rain* Wind** Luminosity Snow
1788093683 27.78° C 42% 1010.8 hPa - - - -
1788091402 28.89° C 40% 1011.1 hPa - - - -
1788089121 27.22° C 43% 1011.4 hPa - - - -
1788086837 26.67° C 46% 1011.3 hPa - - - -
1788084557 26.67° C 47% 1011.7 hPa - - - -
1788082276 25.56° C 50% 1011.9 hPa - - - -
1788079994 22.78° C 62% 1012.1 hPa - - - -
1788077710 20.56° C 67% 1012.3 hPa - - - -
1788075430 20.56° C 66% 1012.2 hPa - - - -
1788073146 18.33° C 74% 1012.5 hPa - - - -
1788070877 16.67° C 86% 1012.4 hPa - - - -
1788068580 15.56° C 92% 1012.6 hPa - - - -
1788066298 15° C 94% 1012.5 hPa - - - -
1788064017 14.44° C 97% 1012.6 hPa - - - -
1788061735 13.33° C 100% 1012.5 hPa - - - -
1788059453 13.89° C 100% 1012.6 hPa - - - -
1788057172 13.89° C 100% 1012.6 hPa - - - -
1788054890 15° C 97% 1012.7 hPa - - - -
1788052608 14.44° C 100% 1012.8 hPa - - - -
1788050327 14.44° C 100% 1012.8 hPa - - - -
1788048045 14.44° C 100% 1012.8 hPa - - - -
1788045866 15° C 94% 1012.7 hPa - - - -
1788045763 15° C 94% 1012.7 hPa - - - -
1788043482 15.56° C 93% 1012.5 hPa - - - -
1788041200 15.56° C 93% 1012.5 hPa - - - -

* Rain since midnight (hover to see other rain measurements)
** Current wind speed in m/s (hover to see current wind gust speed)